Regional Weather Roundup
Issued by NWS

Home | Current Version | Previous Version | Text Only | Print | Product List | Glossary On
Versions: 1 2 3 4 5 6 7 8 9 10 11 12 13 14 15 16 17 18 19 20 21 22 23 24 25 26 27 28 29 30 31 32 33 34 35 36 37 38 39 40 41 42 43 44 45 46 47 48 49
000
ASUS46 KPQR 210410
RWROR

OREGON REGIONAL WEATHER ROUNDUP
NATIONAL WEATHER SERVICE PORTLAND OR
900 PM PDT WED AUG 20 2014

NOTE: "FAIR" INDICATES FEW OR NO CLOUDS BELOW 12,000 FEET WITH
NO SIGNIFICANT WEATHER AND/OR OBSTRUCTIONS TO VISIBILITY.

ORZ001>013-210500-
NORTHWEST OREGON


CITY           SKY/WX    TMP DP  RH WIND       PRES   REMARKS
ASTORIA        MOCLDY    58  53  84 SW5       30.03R
NEWPORT        CLEAR     57  52  82 CALM      30.05S
PORTLAND       PTCLDY    68  51  54 NW9       29.98R
VANCOUVER WA   CLEAR     67  49  52 N6        29.98R
SCAPPOOSE      CLEAR     64  49  57 N6        29.98R
HILLSBORO      NOT AVBL
AURORA         CLEAR     69  50  50 NE5       29.98R
MCMINNVILLE    CLEAR     66  51  58 S5        29.98R
SALEM          CLEAR     67  48  50 NW5       29.97R
CORVALLIS      CLEAR     64  48  55 NW12      29.99R
EUGENE         CLEAR     66  51  58 NW6       29.97R
$$

ORZ021-028-210500-
SOUTHWEST OREGON


CITY           SKY/WX    TMP DP  RH WIND       PRES   REMARKS
NORTH BEND     CLEAR     61  55  82 N10       30.02R
BROOKINGS      CLEAR     64  57  78 SE5       29.91R
ROSEBURG       CLEAR     74  53  48 NW8       29.94R
SEXTON SUMMIT  CLEAR     59  49  69 N10G22    30.02S
MEDFORD        CLEAR     75  51  43 NW6       29.93R
$$

ORZ009-041-210500-
COLUMBIA GORGE


CITY           SKY/WX    TMP DP  RH WIND       PRES   REMARKS
TROUTDALE      CLEAR     69  49  48 VRB3      29.96R
$$

ORZ029>031-042>050-061>064-210500-
EASTERN OREGON


CITY           SKY/WX    TMP DP  RH WIND       PRES   REMARKS
REDMOND        CLEAR     64  40  41 NW6       29.97R
BEND           NOT AVBL
KLAMATH FALLS  CLEAR     66  49  54 NW7       29.99R
LAKEVIEW       CLOUDY    70  43  37 N15       30.01R
HERMISTON      CLEAR     70  47  43 SW9       29.82R
PENDLETON      CLEAR     69  40  34 W14       29.85R
JOHN DAY       CLEAR     66  39  37 SW6       29.94R
MEACHAM        PTCLDY    55  31  39 CALM      29.97R
LA GRANDE      PTCLDY    64  28  25 NW8       29.91R
BAKER CITY     NOT AVBL
BURNS          NOT AVBL
ROME           NOT AVBL
ONTARIO        MOCLDY    72  51  47 N7        29.81R
$$



USA.gov is the U.S. government's official web portal to all federal, state and local government web resources and services.